Location: Gro�sch�nbrunn
(49.5760°N, 11.8868°E)
Time: 15:32:00
(UTC+00:00)

Cosmos 1125 Rocket - Pass Details

Date: 18 September 2020
Orbit: 758 x 779 km, 74.0° (Epoch: 31 October)

Event Time Altitude Azimuth Distance (km) Brightness Sun altitude
Rises 18:57:34 0° 178° (S) 3,244 6.5 -16.4°
Reaches altitude 10° 19:00:04 10° 171° (S) 2,323 5.7 -16.8°
Maximum altitude 19:04:56 39° 104° (ESE) 1,153 3.9 -17.5°
Drops below altitude 10° 19:09:51 10° 36° (NE) 2,343 5.9 -18.3°
Sets 19:12:22 0° 29° (NNE) 3,275 6.7 -18.6°
